Location: Unspecified
(0.0000°N, 0.0000°E)
Time: 12:18:57
(UTC+02:00)

PROBA 2 - Pass Details

Date: 29 May 2022
Orbit: 704 x 725 km, 98.2° (Epoch: 30 June)

Event Time Altitude Azimuth Distance (km) Brightness Sun altitude
Rises 07:11:21 0° 147° (SSE) 3,139 ? -10.7°
Reaches altitude 10° 07:13:56 10° 135° (SE) 2,216 ? -10.1°
Maximum altitude 07:18:01 27° 78° (ENE) 1,368 ? -9.1°
Drops below altitude 10° 07:22:05 10° 21° (NNE) 2,205 ? -8.2°
Sets 07:24:37 0° 9° (N) 3,121 ? -7.6°
